Regional Weather Roundup
Issued by NWS

Home | Current Version | Previous Version | Graphics & Text | Print | Product List | Glossary Off
Versions: 1 2 3 4 5 6 7 8 9 10 11 12 13 14 15 16 17 18 19 20 21 22 23 24 25 26 27 28 29 30 31 32 33 34 35 36 37 38 39 40 41 42 43 44 45 46 47 48 49 50

000
ASUS43 KLOT 200121
RWRIL

ILLINOIS REGIONAL WEATHER ROUNDUP
NATIONAL WEATHER SERVICE CHICAGO/ROMEOVILLE IL
800 PM CDT SUN APR 19 2015

NOTE: "FAIR" INDICATES FEW OR NO CLOUDS BELOW 12,000 FEET WITH NO
SIGNIFICANT WEATHER AND/OR OBSTRUCTIONS TO VISIBILITY.

* THESE STATIONS ARE NOT UNDER NWS QUALITY CONTROL. THEY ALSO MAY NOT
  REPORT WEATHER SUCH AS PRECIPITATION OR FOG.

ILZ001-002-007-009-015-016-024-200200-
NORTHWEST ILLINOIS

CITY           SKY/WX    TMP DP  RH WIND       PRES   REMARKS
MOLINE         LGT RAIN  57  54  89 E3        29.44F FOG
STERLING*      CLOUDY    55  54  94 CALM      29.44F
SAVANNA*       RAIN      57  54  89 SE5       29.44S
$$

ILZ003-004-008-010-011-017-018-200200-
NORTH CENTRAL ILLINOIS

CITY           SKY/WX    TMP DP  RH WIND       PRES   REMARKS
ROCKFORD       LGT RAIN  53  49  86 E6        29.47F
FREEPORT*      DRIZZLE   54  49  85 E10       29.47S
ROCHELLE*      LGT RAIN  53  51  94 NE8       29.44F
DE KALB*       LGT RAIN  51  49  95 NE10      29.43F
PERU*          DRIZZLE   55  53  92 NW3       29.44S
$$

ILZ005-006-012>014-019>023-200200-
NORTHEAST ILLINOIS

CITY           SKY/WX    TMP DP  RH WIND       PRES   REMARKS
CHICAGO-OHARE  LGT RAIN  52  50  93 NE10      29.41F
CHICAGO-MIDWAY DRIZZLE   53  52  96 NE14      29.39F FOG
AURORA         LGT RAIN  54  51  90 NE13      29.40F FOG
LANSING*       DRIZZLE   54  51  90 NE6       29.38F
JOLIET*        RAIN      55  54  96 NE5       29.39F
WAUKEGAN       RAIN      47  46  97 N7        29.44F FOG
DUPAGE AIRPORT LGT RAIN  53  51  93 NE10      29.40F FOG
KANKAKEE*      HVY RAIN  54  54  98 NE8       29.37F
WHEELING       LGT RAIN  50  49  96 NE8       29.43F
MORRIS*        RAIN      54  53  96 N5        29.36F
ROMEOVILLE*    LGT RAIN  53  51  95 NE13      29.38F
NORTHERLY ISL    N/A     49  47  93 N8          N/A
$$

LMZ740>746-200200-
SOUTHERN LAKE MICHIGAN

STATION/POSITION SKY/WX   TEMP    WIND        PRES    VSBY  WAVE
                          AIR SEA DIR/SP/G                  HT/PER
                          (F)     (DEG/KT/KT) (MB)    (MI)  (FT/S)
HARRISON CRIB              46     360/  9/ 10   N/A
BURNHAM HARBOR             49      20/ 10/ 12   N/A
CALUMET HARBOR             49      30/  7/ 11   N/A
BURNS HARBOR               50      60/  9/ 12  997.0F
MICHIGAN CITY              54      60/  7/ 10   N/A
MICHIGAN CITY 6N           48 44   80/  8/ 10   N/A           1/ 3
$$

ILZ025>027-034>036-040-047-049-050-058-095>099-200200-
WEST-CENTRAL ILLINOIS

CITY           SKY/WX    TMP DP  RH WIND       PRES   REMARKS
QUINCY         CLOUDY    58  56  93 CALM      29.45F
GALESBURG*     RAIN      57  56  98 CALM      29.44F
MACOMB*        LGT RAIN  57  56  94 NW5       29.46F
JACKSONVILLE*  CLOUDY    60  59  95 W3        29.46S FOG
PITTSFIELD*    CLOUDY    60  57  90 CALM      29.47F
$$

ILZ028>032-037-038-041>044-048-051>054-059>061-200200-
CENTRAL ILLINOIS

CITY           SKY/WX    TMP DP  RH WIND       PRES   REMARKS
PONTIAC        DRIZZLE   55  55  99 NW6       29.41F
BLOOMINGTON    LGT RAIN  55  55 100 W12       29.44R FOG
DECATUR        CLOUDY    57  55  93 W15G22    29.43S FOG
PEORIA         LGT RAIN  58  55  90 W5        29.45F FOG
LACON*         HVY RAIN  54  53  95 SW3       29.43F
LINCOLN*       DRIZZLE   58  56  96 W6        29.43F
SPRINGFIELD    LGT RAIN  58  56  93 N7        29.42F FOG
TAYLORVILLE    RAIN      55  55 100 N13       29.42F
$$

ILZ033-039-045-046-055>057-062-063-200200-
EAST-CENTRAL ILLINOIS

CITY           SKY/WX    TMP DP  RH WIND       PRES   REMARKS
CHAMPAIGN      CLOUDY    56  55  97 W15       29.39R FOG
DANVILLE*      RAIN      58  58  99 CALM      29.33F
RANTOUL*       CLOUDY    57  57  97 W10       29.38S FOG
MATTOON        LGT RAIN  57  57 100 W13       29.40R
PARIS*         CLOUDY    59  59  99 W12       29.38R
$$

ILZ079-100>102-200200-
SOUTHWEST ILLINOIS

CITY           SKY/WX    TMP DP  RH WIND       PRES   REMARKS
ALTON          CLOUDY    59  57  94 W7        29.49R
BELLEVILLE     CLOUDY    59  59  99 W3        29.49R
CAHOKIA*       CLOUDY    61  57  87 CALM      29.49R
SPARTA*        MOCLDY    60  58  92 CALM      29.52R
$$

ILZ064>066-069>071-074>076-080>082-084>086-088>090-092>094-200200-
SOUTH-CENTRAL ILLINOIS

CITY           SKY/WX    TMP DP  RH WIND       PRES   REMARKS
CARBONDALE     CLOUDY    62  60  93 SW5       29.52R
CAIRO*         CLOUDY    66  61  84 SW7       29.54S
EFFINGHAM*     DRIZZLE   58  55  89 SW9       29.43R
MARION         CLOUDY    64  61  88 SW5       29.53R
MT. VERNON     CLOUDY    61  54  77 SW8       29.52R
CENTRALIA*     CLOUDY    59  57  92 W10       29.50R
SALEM*         CLOUDY    62  58  87 W12       29.47R
METROPOLIS*    CLOUDY    64  64 100 CALM      29.54R
$$

ILZ067-068-072-073-078-083-087-091-200200-
SOUTHEAST ILLINOIS

CITY           SKY/WX    TMP DP  RH WIND       PRES   REMARKS
LAWRENCEVILLE  CLOUDY    60  58  92 SW18      29.45R
FLORA*         CLOUDY    60  58  91 W14G20    29.47R
FAIRFIELD*     CLOUDY    61  58  92 SW10G16   29.47R
HARRISBURG*    CLOUDY    63  61  94 SW9       29.53R
ROBINSON*      CLOUDY    60  58  95 W7        29.33F
CARMI*         CLOUDY    62  56  81 SW12      29.49S
$$

ABBREVIATIONS USED IN REMARKS
   TC - TEMPERATURE IN CELSIUS
  WCI - WIND CHILL INDEX
   HX - HEAT INDEX
  VSB - VISIBILITY
$$



USA.gov is the U.S. government's official web portal to all federal, state and local government web resources and services.